[[{"header":{"parameterUnit":"m.s-1","parameterCategory":1,"la1":30.2991,"la2":30.254,"lo1":-89.0895,"lo2":-89.0444,"dy":0.0017,"dx":0.0017,"nx":28,"ny":28,"refTime":"2023-09-07T21:00:00:Z","depth":0,"parameterNumber":2,"parameterNumberName":"U-component_of_WINDS"},"data":[0,0,0,0,0,0,0,0,0,0,0,0,0,0,0,0,0,0,0,0,0,0,0,0,0,0,0,0,0,0,0,0,0,0,0,0,0,0,0,0,0,0,0,0,0,0,0,0,0,0,0,0,0,0,0,0,0,0,2.1683,2.1685,0,2.1795,2.1796,2.1797,2.1803,2.1802,2.1801,2.1799,2.1915,2.192,2.1924,0,0,0,0,0,0,0,0,0,0,0,0,0,2.148,2.1483,2.1683,2.1685,2.1686,2.1794,2.1796,2.1797,2.1803,2.1802,2.18,2.1799,2.1914,2.1919,2.1924,0,0,0,0,0,0,0,0,0,0,0,0,0,2.1577,2.1484,2.1683,2.1702,2.1705,2.1794,2.1796,2.1798,2.1804,2.1802,2.18,2.1798,2.1912,2.1919,2.1925,2.2003,0,0,2.1945,2.1947,0,0,0,0,0,0,0,0,2.1572,2.1585,2.1698,2.1701,2.1704,2.1783,2.1767,2.1867,2.1804,2.1766,2.1799,2.1797,2.1873,2.1883,2.1908,2.2009,2.2014,2.1945,2.1949,2.1952,2.1954,0,0,0,0,0,0,0,2.1565,2.158,2.1727,2.17,2.1703,2.1706,2.1718,2.1786,2.1829,2.1769,2.177,2.1783,2.1874,2.1901,2.191,2.2015,2.1945,2.1951,2.1955,2.1957,2.2189,2.2191,0,0,0,0,0,0,2.1554,2.1574,2.1724,2.1731,2.1632,2.1711,2.1724,2.176,2.1828,2.1837,2.1785,2.1783,2.1891,2.1903,2.1915,2.2013,2.1952,2.1958,2.1961,2.2187,2.2189,2.2192,0,0,0,0,0,0,2.155,2.1567,2.1719,2.1653,2.1672,2.1717,2.1756,2.1763,2.179,2.184,2.1848,2.1804,2.189,2.1906,2.1982,2.2017,2.1961,2.1966,2.2184,2.2187,2.2191,2.2208,0,0,0,0,0,0,2.1544,2.1566,2.1595,2.1653,2.1676,2.1784,2.1759,2.1766,2.1801,2.18,2.186,2.1869,2.189,2.1972,2.1988,2.2025,2.1971,2.2181,2.2185,2.219,2.2205,2.2212,2.2218,0,0,0,0,0,2.1536,2.1595,2.1596,2.1614,2.1713,2.1785,2.1798,2.1821,2.1803,2.1834,2.1867,2.1867,2.201,2.198,2.1998,2.2037,2.2179,2.2184,2.2189,2.2202,2.221,2.2218,0,0,0,0,0,0,2.154,2.1603,2.1605,2.1685,2.173,2.1786,2.1825,2.1829,2.1881,2.1878,2.1905,2.1918,2.1994,2.2023,2.1988,2.2118,2.2093,2.2102,2.2096,2.2105,2.2111,2.2103,2.1977,0,0,0,0,0,2.155,2.1603,2.1655,2.172,2.1743,2.178,2.1813,2.1826,2.1874,2.1894,2.1932,2.1979,2.2035,2.2071,2.2125,2.2209,2.2223,2.2245,2.2251,2.2256,2.2264,2.2313,2.2324,2.2209,2.2209,2.2209,0,0,2.1571,2.1612,2.1644,2.1722,2.1759,2.1814,2.1796,2.1855,2.1897,2.1903,2.1977,2.2007,2.2062,2.2142,2.218,2.2169,2.2299,2.2263,2.2267,2.2272,2.2319,2.233,2.234,2.2212,2.2212,2.2211,0,0,2.1639,2.1674,2.1733,2.1771,2.1826,2.1851,2.1865,2.1922,2.1942,2.2017,2.2024,2.2074,2.2169,2.2208,2.2241,2.2325,2.2328,2.2342,2.2377,2.2424,2.2433,2.2441,2.2473,2.2484,2.235,2.235,2.235,0,2.1658,2.1741,2.1763,2.1823,2.1858,2.1866,2.1927,2.1962,2.2033,2.2058,2.2044,2.2165,2.2202,2.2293,2.2314,2.2339,2.2358,2.2336,2.243,2.2438,2.2446,2.2477,2.2489,2.2351,2.2351,2.2351,2.2351,0,2.1764,2.1821,2.1862,2.193,2.197,2.203,2.2063,2.21,2.2111,2.2138,2.2215,2.2261,2.2325,2.2347,2.2358,2.2441,2.2432,2.2424,2.24,2.2458,2.2488,2.25,2.2353,2.2353,2.2352,2.2352,0,0,2.1836,2.1917,2.1932,2.1964,2.2027,2.2072,2.2133,2.2196,2.2228,2.2277,2.233,2.2411,2.2405,2.2441,2.2457,2.2498,2.2565,2.2485,2.2487,2.25,2.2661,2.2668,2.2681,2.2566,2.2569,2.257,2.2657,0,2.1911,2.202,2.2043,2.2137,2.2191,2.2201,2.2254,2.2299,2.2326,2.2377,2.2407,2.2465,2.245,2.2473,2.2514,2.2548,2.2597,2.2542,2.2618,2.262,2.2605,2.2696,2.2703,2.2782,2.2668,2.267,2.2671,0,2.2014,2.2066,2.2165,2.2223,2.2247,2.2294,2.2355,2.2402,2.2455,2.2471,2.2513,2.2525,2.259,2.2562,2.2654,2.2616,2.2648,2.267,2.2673,2.2682,2.265,2.2709,2.2808,2.282,2.2689,2.2688,2.2687,0,2.2059,2.2154,2.2226,2.2253,2.2321,2.2355,2.2385,2.2435,2.2472,2.2525,2.255,2.2609,2.2643,2.2689,2.2718,2.2694,2.2808,2.2781,2.2825,2.2825,2.285,2.2848,2.2957,2.2868,2.2868,2.2868,2.2867,0,2.2142,2.2203,2.2248,2.2292,2.2362,2.2388,2.2456,2.2486,2.2531,2.2583,2.2594,2.2642,2.2676,2.273,2.2752,2.2826,2.284,2.2857,2.2862,2.2857,2.2855,2.2879,2.2875,2.2871,2.287,2.2869,2.2869,0,2.2204,2.2236,2.2316,2.2375,2.2391,2.244,2.2491,2.2535,2.2562,2.2628,2.2645,2.2688,2.2752,2.2784,2.2864,2.2879,2.2963,2.2964,2.2945,2.2948,2.299,2.2986,2.312,2.3139,2.3036,2.3037,2.3038,0,2.2256,2.2303,2.2367,2.2403,2.2434,2.249,2.2528,2.2557,2.2596,2.266,2.2697,2.2761,2.2815,2.2916,2.2956,2.3017,2.3021,2.3064,2.303,2.3024,2.3024,2.3021,2.3027,2.307,2.3071,2.3072,2.3072,0,2.2344,2.2358,2.2412,2.2473,2.2518,2.2567,2.2615,2.2644,2.268,2.2724,2.2789,2.283,2.2912,2.2977,2.3041,2.3073,2.308,2.3082,2.3096,2.3091,2.3079,2.3088,2.2963,2.3079,2.3079,2.3078,2.3078,2.3077,2.2404,2.2448,2.25,2.2561,2.26,2.2645,2.2691,2.2724,2.2779,2.2848,2.2861,2.2931,2.2984,2.3071,2.3105,2.3161,2.3152,2.3172,2.3177,2.3182,2.3185,2.3069,2.3173,2.3173,2.3173,2.3172,2.3172,0,2.2495,2.253,2.2585,2.2653,2.2701,2.2702,2.2756,2.2796,2.2858,2.2906,2.2958,2.3034,2.3097,2.3142,2.3206,2.3243,2.3247,2.3259,2.3257,2.3265,2.3188,2.317,2.3254,2.3254,2.3254,2.3254,2.3254,2.3254,2.2548,2.2622,2.2643,2.2737,2.2772,2.284,2.2871,2.2914,2.2953,2.3037,2.309,2.3118,2.3166,2.3234,2.3292,2.3304,2.3328,2.3339,2.3351,2.3279,2.327,2.3262,2.3246,2.3344,2.3344,2.3424,2.3425,2.3425]},{"header":{"parameterUnit":"m.s-1","parameterCategory":1,"la1":30.2991,"la2":30.254,"lo1":-89.0895,"lo2":-89.0444,"dy":0.0017,"dx":0.0017,"nx":28,"ny":28,"refTime":"2023-09-07T21:00:00:Z","depth":0,"parameterNumber":3,"parameterNumberName":"V-component_of_WINDS"},"data":[0,0,0,0,0,0,0,0,0,0,0,0,0,0,0,0,0,0,0,0,0,0,0,0,0,0,0,0,0,0,0,0,0,0,0,0,0,0,0,0,0,0,0,0,0,0,0,0,0,0,0,0,0,0,0,0,0,0,1.1829,1.183,0,1.1879,1.1879,1.188,1.1904,1.1904,1.1904,1.1904,1.1952,1.1953,1.1955,0,0,0,0,0,0,0,0,0,0,0,0,0,1.175,1.1751,1.1829,1.183,1.183,1.1879,1.188,1.188,1.1904,1.1904,1.1904,1.1904,1.1952,1.1953,1.1955,0,0,0,0,0,0,0,0,0,0,0,0,0,1.179,1.1752,1.1829,1.1848,1.1851,1.1879,1.188,1.188,1.1904,1.1904,1.1904,1.1904,1.1951,1.1953,1.1955,1.1967,0,0,1.1961,1.1962,0,0,0,0,0,0,0,0,1.1788,1.1793,1.1845,1.1847,1.185,1.1885,1.1869,1.1909,1.1904,1.1884,1.1904,1.1904,1.193,1.1933,1.1943,1.1969,1.1971,1.1961,1.1962,1.1963,1.1963,0,0,0,0,0,0,0,1.1785,1.1791,1.1849,1.1845,1.1848,1.1853,1.1859,1.1877,1.1906,1.1886,1.1887,1.1893,1.1931,1.1941,1.1944,1.1972,1.1961,1.1963,1.1964,1.1965,1.2007,1.2007,0,0,0,0,0,0,1.178,1.1789,1.1847,1.185,1.1818,1.1854,1.1861,1.1874,1.1906,1.1911,1.1893,1.1894,1.1937,1.1942,1.1946,1.196,1.1963,1.1965,1.1966,1.2007,1.2007,1.2007,0,0,0,0,0,0,1.1778,1.1785,1.1845,1.182,1.1828,1.1856,1.187,1.1875,1.1885,1.1912,1.1917,1.1898,1.1938,1.1943,1.1961,1.1962,1.1966,1.1967,1.2007,1.2007,1.2007,1.199,0,0,0,0,0,0,1.1776,1.1784,1.179,1.182,1.1829,1.1861,1.187,1.1876,1.1888,1.189,1.1918,1.1922,1.1938,1.1958,1.1963,1.1965,1.1969,1.2007,1.2007,1.2007,1.1991,1.1989,1.1988,0,0,0,0,0,1.1773,1.1783,1.1791,1.1797,1.1838,1.1861,1.1866,1.1885,1.1888,1.1894,1.1911,1.1921,1.1961,1.196,1.1965,1.1968,1.2007,1.2007,1.2007,1.1991,1.199,1.1988,0,0,0,0,0,0,1.1753,1.1788,1.1796,1.1817,1.1836,1.1865,1.1873,1.1883,1.1901,1.1902,1.1924,1.193,1.1945,1.1958,1.1956,1.198,1.1985,1.1986,1.1971,1.197,1.1969,1.1965,1.197,0,0,0,0,0,1.1751,1.1768,1.1797,1.1812,1.1822,1.1845,1.1856,1.1869,1.1889,1.1897,1.1916,1.1934,1.195,1.1961,1.1977,1.1992,1.1998,1.1997,1.1996,1.1995,1.1995,1.2002,1.2001,1.2007,1.2007,1.2007,0,0,1.1747,1.1768,1.1778,1.1809,1.1825,1.1841,1.1852,1.1869,1.188,1.19,1.1918,1.1931,1.1953,1.1969,1.1977,1.198,1.1994,1.1994,1.1993,1.1995,1.2002,1.2001,1.2001,1.2007,1.2007,1.2007,0,0,1.1747,1.1766,1.178,1.1796,1.182,1.1835,1.1838,1.1866,1.1876,1.1894,1.1908,1.1921,1.195,1.1964,1.1975,1.1978,1.1987,1.1982,1.1977,1.1983,1.1982,1.1982,1.1982,1.1981,1.1983,1.1983,1.1983,0,1.1739,1.1765,1.1785,1.1801,1.1813,1.1831,1.1844,1.1858,1.1886,1.1894,1.1897,1.1932,1.1948,1.1966,1.1967,1.1975,1.1978,1.198,1.1981,1.1981,1.1981,1.1981,1.198,1.1982,1.1982,1.1982,1.1982,0,1.1753,1.177,1.1778,1.1805,1.1818,1.1832,1.1853,1.1863,1.1874,1.1888,1.1905,1.1924,1.1945,1.195,1.1961,1.1969,1.197,1.1977,1.1983,1.1979,1.1979,1.1979,1.1981,1.1981,1.1981,1.1981,0,0,1.1744,1.178,1.1783,1.1794,1.1821,1.1834,1.1847,1.1868,1.1875,1.1893,1.1904,1.1927,1.1932,1.1945,1.1957,1.1962,1.1961,1.1968,1.1969,1.1965,1.197,1.1964,1.1964,1.1968,1.1968,1.1968,1.1967,0,1.1748,1.1774,1.1792,1.1811,1.1825,1.1841,1.1853,1.187,1.1883,1.1896,1.191,1.1925,1.1932,1.1939,1.1945,1.196,1.1962,1.196,1.1977,1.1977,1.197,1.1964,1.1959,1.1957,1.1968,1.1968,1.1968,0,1.1756,1.1774,1.1794,1.1817,1.1824,1.1834,1.1853,1.1866,1.1884,1.1893,1.1905,1.1917,1.193,1.1934,1.1952,1.195,1.1957,1.1965,1.1965,1.1967,1.1972,1.1965,1.1958,1.1957,1.1968,1.1968,1.1968,0,1.1746,1.1775,1.179,1.1799,1.1827,1.1834,1.1845,1.1864,1.1874,1.1889,1.1895,1.1912,1.1921,1.1933,1.1948,1.195,1.1963,1.1969,1.1969,1.1969,1.1971,1.1971,1.1964,1.1977,1.1977,1.1977,1.1977,0,1.1748,1.176,1.1786,1.1795,1.1807,1.1826,1.1838,1.185,1.1866,1.1877,1.1891,1.1901,1.1921,1.1932,1.1944,1.1955,1.1959,1.1966,1.1969,1.1964,1.1963,1.1969,1.1969,1.1977,1.1977,1.1977,1.1977,0,1.174,1.1758,1.1775,1.1799,1.1805,1.1813,1.1833,1.1842,1.1855,1.1868,1.1872,1.1892,1.1906,1.1923,1.1942,1.195,1.1959,1.1964,1.1954,1.1955,1.1954,1.1954,1.1951,1.1951,1.1964,1.1963,1.1963,0,1.174,1.1749,1.1774,1.1782,1.1793,1.1807,1.1817,1.1835,1.1844,1.1864,1.187,1.1885,1.1898,1.1919,1.1934,1.1948,1.1953,1.1951,1.1956,1.195,1.1952,1.1951,1.1951,1.195,1.195,1.195,1.1949,0,1.1738,1.1745,1.176,1.1777,1.1788,1.1802,1.1817,1.1822,1.1843,1.1852,1.1867,1.1877,1.1896,1.191,1.1925,1.1936,1.1945,1.1948,1.1948,1.1944,1.1937,1.1939,1.195,1.1948,1.1948,1.1948,1.1948,1.1948,1.1733,1.1741,1.1759,1.1774,1.1786,1.1799,1.1808,1.1821,1.1834,1.1851,1.186,1.1874,1.1889,1.1911,1.1921,1.1931,1.1934,1.1936,1.1936,1.1936,1.1934,1.1935,1.1934,1.1934,1.1934,1.1934,1.1934,0,1.1731,1.1742,1.1756,1.1775,1.1786,1.1794,1.181,1.1818,1.183,1.1844,1.1856,1.1872,1.1885,1.19,1.1914,1.1919,1.1923,1.1922,1.1921,1.1923,1.193,1.1928,1.1918,1.1918,1.1918,1.1918,1.1918,1.1918,1.1731,1.1744,1.1753,1.1772,1.1784,1.1797,1.1805,1.1816,1.1827,1.1844,1.1855,1.1865,1.1879,1.1893,1.1905,1.1909,1.1913,1.191,1.1915,1.1921,1.1923,1.1924,1.1922,1.1911,1.1911,1.1907,1.1907,1.1907]}]]